Flag for Germany Weather past 2 weeks in Halle, Saxony-Anhalt, Germany

Now
37 °F

Light rain. Passing clouds.


Feels Like: 28 °F
Forecast: 33 / 39 °F
Wind: 16 mph from Northwest

Location: Leipzig-Schkeuditz

Current Time: Jan 27, 2015 at 5:13:14 AM

Latest Report: Jan 27, 2015 at 4:20 AM


Visibility: N/A

Pressure: 29.92 "Hg

Humidity: 93%

Dew point: 36 °F

Location of HalleLocation

Historic Weather in Halle — Graph

°F

Halle temperature yesterday

Maximum temperature yesterday: 39 °F (at 10:50 AM)
Minimum temperature yesterday: 32 °F (at 9:50 PM)
Average temperature yesterday: 35 °F

Past Weeks' High & Low Weather Summary

 TemperatureHumidityPressure
High54 °F (Jan 13, 12:50 PM)100% (Jan 16, 5:50 PM)30.30 "Hg (Jan 16, 5:50 PM)
Low27 °F (Jan 18, 6:50 AM)44% (Jan 13, 5:50 PM)29.59 "Hg (Jan 15, 7:20 PM)
Average37 °F89%29.96 "Hg
* Reported Jan 12 3:20 AM — Jan 27 3:50 AM, Halle, Weather by CustomWeather, © 2014

Note: Actual official high and low records may vary slightly from our data, if they occured in-between our weather recording intervals... More about our weather records

Advertising

Halle weather history for previous 24 hours

 ConditionsComfort  
Time TempWeatherWind HumidityBarometerVisibility
3:50 AM
Jan 27
37 °FLight rain. Passing clouds.17 mph93%29.92 "HgN/A
3:20 AM37 °FPassing clouds.16 mph93%29.92 "HgN/A
2:50 AM37 °FPassing clouds.15 mph93%29.89 "HgN/A
2:20 AM37 °FPassing clouds.16 mph93%29.89 "HgN/A
1:50 AM37 °FPassing clouds.15 mph100%29.89 "HgN/A
1:20 AM36 °FLight rain. Passing clouds.16 mph100%29.89 "HgN/A
12:50 AM36 °FPassing clouds.17 mph100%29.89 "HgN/A
12:20 AM36 °FLight rain. Passing clouds.16 mph100%29.89 "HgN/A
11:50 PM
Jan 26
36 °FLight rain. Passing clouds.17 mph100%29.89 "HgN/A
11:20 PM34 °FLight rain. Mostly cloudy.16 mph100%29.89 "HgN/A
10:50 PM34 °FLight rain. Mostly cloudy.13 mph100%29.92 "Hg5 mi
10:20 PM32 °FSnow. Ice fog.16 mph100%29.92 "Hg3 mi
9:50 PM32 °FRain. Ice fog.16 mph100%29.92 "Hg2 mi
9:20 PM34 °FLight rain. Fog.15 mph100%29.92 "Hg3 mi
8:50 PM34 °FLight rain. Fog.15 mph100%29.92 "Hg3 mi
8:20 PM34 °FLight rain. Fog.16 mph100%29.92 "Hg3 mi
7:50 PM34 °FLight rain. Passing clouds.15 mph100%29.92 "Hg4 mi
7:20 PM34 °FLight rain. Partly cloudy.13 mph100%29.95 "Hg5 mi
6:50 PM34 °FLight rain. Passing clouds.16 mph100%29.95 "Hg5 mi
6:20 PM36 °FLight rain. Mostly cloudy.16 mph93%29.98 "HgN/A
5:50 PM36 °FLight rain. Mostly cloudy.16 mph93%29.98 "HgN/A
5:20 PM37 °FLight rain. Mostly cloudy.16 mph87%29.98 "HgN/A
4:50 PM37 °FPartly cloudy.16 mph87%30.01 "HgN/A
4:20 PM37 °FPartly sunny.15 mph87%30.01 "HgN/A
3:50 PM37 °FPartly sunny.15 mph87%30.04 "HgN/A
3:20 PM39 °FPartly sunny.15 mph81%30.04 "HgN/A
2:50 PM39 °FPartly sunny.16 mph81%30.04 "HgN/A
2:20 PM39 °FPartly sunny.14 mph81%30.07 "HgN/A
1:50 PM37 °FPartly sunny.16 mph87%30.07 "HgN/A
1:20 PM39 °FLight rain. Partly sunny.12 mph87%30.09 "HgN/A
12:50 PM37 °FLight rain. Partly sunny.10 mph93%30.12 "HgN/A
12:20 PM37 °FPartly sunny.15 mph93%30.12 "HgN/A
11:50 AM37 °FBroken clouds.14 mph93%30.15 "HgN/A
11:20 AM37 °FBroken clouds.14 mph87%30.15 "HgN/A
10:50 AM39 °FScattered clouds.14 mph87%30.18 "HgN/A
10:20 AM37 °FPassing clouds.12 mph93%30.18 "HgN/A
9:50 AM36 °FScattered clouds.9 mph100%30.18 "HgN/A
9:20 AM34 °FPartly sunny.9 mph100%30.21 "HgN/A
8:50 AM34 °FPartly sunny.8 mph100%30.21 "Hg4 mi
8:20 AM34 °FFog.8 mph100%30.21 "Hg2 mi
7:50 AM34 °FFog.8 mph100%30.21 "Hg2 mi
7:20 AM34 °FFog.7 mph100%30.21 "Hg3 mi
6:50 AM34 °FFog.8 mph100%30.24 "Hg3 mi
6:20 AM34 °FFog.8 mph100%30.24 "Hg3 mi
5:50 AM34 °FLight rain. Fog.7 mph100%30.24 "Hg2 mi
5:20 AM34 °FFog.7 mph100%30.24 "Hg2 mi
Weather by CustomWeather, © 2014

See weather overviewHow to use our weather pages